When you browse on this site, cookies collect data to enhance your experience and personalize the content and advertising you see.
Visit our Privacy Policy to learn more. By continuing to use the site, you agree to this use of cookies and data.
  • In United Kingdom
  • List of Countries
  • For 7 days
  • Water Temperature
  • Satellite Maps
  • Weather Map
  • Weather Widgets
  • user-avatar
    Login

    Hourly Weather Kerns

    Today, 22 February, Friday

    Time Temperature Precipitation Wind Pressure Humidity
    00:00 +29°C° 0 mm 2 mps 753 mmHg 49%
    01:00 +28°C° 0 mm 3 mps 753 mmHg 45%
    02:00 +28°C° 0 mm 3 mps 753 mmHg 41%
    03:00 +27°C° 0 mm 3 mps 753 mmHg 37%
    04:00 +26°C° 0 mm 3 mps 753 mmHg 37%
    05:00 +26°C° 0 mm 3 mps 754 mmHg 38%
    06:00 +25°C° 0 mm 2 mps 754 mmHg 40%
    07:00 +25°C° 0 mm 2 mps 754 mmHg 41%
    08:00 +29°C° 0 mm 2 mps 754 mmHg 36%
    09:00 +32°C° 0 mm 2 mps 754 mmHg 31%
    10:00 +36°C° 0 mm 1 mps 755 mmHg 30%
    11:00 +38°C° 0 mm 2 mps 755 mmHg 29%
    12:00 +39°C° 0 mm 2 mps 754 mmHg 27%
    13:00 +40°C° 0 mm 3 mps 754 mmHg 25%
    14:00 +39°C° 0 mm 3 mps 754 mmHg 30%
    15:00 +38°C° 0 mm 3 mps 753 mmHg 36%
    16:00 +37°C° 0 mm 3 mps 753 mmHg 41%
    17:00 +35°C° 0 mm 3 mps 753 mmHg 55%
    18:00 +31°C° 0 mm 3 mps 754 mmHg 69%
    19:00 +29°C° 0 mm 3 mps 754 mmHg 83%
    20:00 +28°C° 0 mm 2 mps 755 mmHg 86%
    21:00 +28°C° 0 mm 2 mps 755 mmHg 89%
    22:00 +27°C° 0 mm 2 mps 756 mmHg 92%
    23:00 +27°C° 0 mm 2 mps 756 mmHg 93%

    Tomorrow, 23 February, Saturday

    Time Temperature Precipitation Wind Pressure Humidity
    00:00 +27°C° 0 mm 2 mps 756 mmHg 93%
    01:00 +26°C° 0 mm 2 mps 756 mmHg 94%
    02:00 +26°C° 0.1 mm 2 mps 756 mmHg 95%
    03:00 +27°C° 0.1 mm 2 mps 755 mmHg 95%
    04:00 +27°C° 0.1 mm 2 mps 755 mmHg 96%
    05:00 +27°C° 0.1 mm 2 mps 756 mmHg 95%
    06:00 +27°C° 0.1 mm 1 mps 756 mmHg 95%
    07:00 +27°C° 0.1 mm 1 mps 756 mmHg 94%
    08:00 +29°C° 0 mm 2 mps 756 mmHg 85%
    09:00 +31°C° 0 mm 2 mps 757 mmHg 77%
    10:00 +34°C° 0 mm 2 mps 757 mmHg 68%
    11:00 +34°C° 0 mm 3 mps 756 mmHg 63%
    12:00 +35°C° 0 mm 3 mps 756 mmHg 58%
    13:00 +36°C° 0 mm 3 mps 756 mmHg 53%
    14:00 +36°C° 0 mm 3 mps 755 mmHg 55%
    15:00 +35°C° 0 mm 3 mps 755 mmHg 57%
    16:00 +35°C° 0 mm 3 mps 755 mmHg 59%
    17:00 +33°C° 0 mm 3 mps 755 mmHg 68%
    18:00 +30°C° 0 mm 3 mps 756 mmHg 77%
    19:00 +28°C° 0 mm 3 mps 756 mmHg 87%
    20:00 +28°C° 0 mm 3 mps 757 mmHg 89%
    21:00 +28°C° 0 mm 3 mps 757 mmHg 91%
    22:00 +27°C° 0 mm 3 mps 758 mmHg 94%
    23:00 +27°C° 0.1 mm 3 mps 758 mmHg 94%

    Day after tomorrow, 24 February, Sunday

    Time Temperature Precipitation Wind Pressure Humidity
    00:00 +27°C° 0.1 mm 2 mps 758 mmHg 94%
    01:00 +27°C° 0.1 mm 2 mps 758 mmHg 95%
    02:00 +27°C° 0.1 mm 2 mps 757 mmHg 95%
    03:00 +27°C° 0.1 mm 2 mps 757 mmHg 95%
    04:00 +26°C° 0.1 mm 2 mps 757 mmHg 95%
    05:00 +27°C° 0.1 mm 2 mps 757 mmHg 94%
    06:00 +27°C° 0.1 mm 2 mps 758 mmHg 94%
    07:00 +27°C° 0.1 mm 2 mps 758 mmHg 94%
    08:00 +28°C° 0.2 mm 2 mps 759 mmHg 85%
    09:00 +30°C° 0.2 mm 3 mps 759 mmHg 76%
    10:00 +33°C° 0.2 mm 3 mps 760 mmHg 67%
    11:00 +33°C° 0.3 mm 3 mps 759 mmHg 66%
    12:00 +33°C° 0.3 mm 4 mps 759 mmHg 65%
    13:00 +34°C° 0.3 mm 4 mps 758 mmHg 63%
    14:00 +34°C° 0.1 mm 4 mps 758 mmHg 62%
    15:00 +34°C° 0.1 mm 4 mps 758 mmHg 60%
    16:00 +34°C° 0.1 mm 4 mps 757 mmHg 59%
    17:00 +32°C° 0 mm 4 mps 758 mmHg 66%
    18:00 +29°C° 0 mm 4 mps 758 mmHg 74%
    19:00 +28°C° 0 mm 3 mps 759 mmHg 81%
    20:00 +27°C° 0 mm 3 mps 759 mmHg 84%
    21:00 +27°C° 0 mm 3 mps 760 mmHg 87%
    22:00 +26°C° 0 mm 3 mps 760 mmHg 90%
    23:00 +26°C° 0.2 mm 3 mps 760 mmHg 91%

    25 February, Monday

    Time Temperature Precipitation Wind Pressure Humidity
    00:00 +26°C° 0.2 mm 3 mps 760 mmHg 92%
    01:00 +26°C° 0.2 mm 3 mps 759 mmHg 93%
    02:00 +26°C° 0.1 mm 3 mps 759 mmHg 93%
    03:00 +26°C° 0.1 mm 3 mps 759 mmHg 93%
    04:00 +26°C° 0.1 mm 3 mps 758 mmHg 93%
    05:00 +26°C° 0.1 mm 3 mps 759 mmHg 93%
    06:00 +26°C° 0.1 mm 3 mps 759 mmHg 92%
    07:00 +26°C° 0.1 mm 3 mps 760 mmHg 92%
    08:00 +28°C° 0.1 mm 4 mps 760 mmHg 83%
    09:00 +30°C° 0.1 mm 4 mps 760 mmHg 75%
    10:00 +32°C° 0.1 mm 5 mps 761 mmHg 67%
    11:00 +33°C° 0 mm 5 mps 760 mmHg 62%
    12:00 +34°C° 0 mm 5 mps 760 mmHg 58%
    13:00 +35°C° 0 mm 5 mps 759 mmHg 54%
    14:00 +34°C° 0.1 mm 5 mps 759 mmHg 58%
    15:00 +33°C° 0.1 mm 5 mps 758 mmHg 61%
    16:00 +33°C° 0.1 mm 5 mps 758 mmHg 64%
    17:00 +30°C° 0.1 mm 5 mps 758 mmHg 70%
    18:00 +29°C° 0.1 mm 5 mps 759 mmHg 77%
    19:00 +27°C° 0.1 mm 5 mps 759 mmHg 83%
    20:00 +27°C° 0 mm 4 mps 760 mmHg 85%
    21:00 +27°C° 0 mm 4 mps 760 mmHg 86%
    22:00 +26°C° 0 mm 4 mps 760 mmHg 88%
    23:00 +26°C° 0 mm 4 mps 760 mmHg 88%

    26 February, Tuesday

    Time Temperature Precipitation Wind Pressure Humidity
    00:00 +26°C° 0 mm 4 mps 760 mmHg 89%
    01:00 +25°C° 0 mm 4 mps 759 mmHg 90%
    02:00 +25°C° 0 mm 4 mps 759 mmHg 90%
    03:00 +25°C° 0 mm 4 mps 758 mmHg 91%
    04:00 +25°C° 0 mm 4 mps 758 mmHg 92%
    05:00 +25°C° 0.1 mm 4 mps 758 mmHg 91%
    06:00 +26°C° 0.1 mm 4 mps 758 mmHg 90%
    07:00 +26°C° 0.1 mm 4 mps 759 mmHg 90%
    08:00 +27°C° 0.1 mm 4 mps 759 mmHg 83%
    09:00 +29°C° 0.1 mm 5 mps 759 mmHg 76%
    10:00 +30°C° 0.1 mm 5 mps 760 mmHg 69%
    11:00 +32°C° 0.1 mm 5 mps 759 mmHg 67%
    12:00 +32°C° 0.1 mm 5 mps 759 mmHg 66%
    13:00 +33°C° 0.1 mm 5 mps 758 mmHg 64%
    14:00 +33°C° 0.1 mm 5 mps 758 mmHg 63%
    15:00 +33°C° 0.1 mm 5 mps 757 mmHg 62%
    16:00 +33°C° 0.1 mm 5 mps 757 mmHg 61%
    17:00 +30°C° 0 mm 5 mps 757 mmHg 67%
    18:00 +29°C° 0 mm 4 mps 757 mmHg 73%
    19:00 +27°C° 0 mm 4 mps 758 mmHg 78%
    20:00 +26°C° 0 mm 3 mps 758 mmHg 81%
    21:00 +26°C° 0 mm 3 mps 759 mmHg 83%
    22:00 +25°C° 0 mm 3 mps 759 mmHg 86%
    23:00 +25°C° 0 mm 3 mps 759 mmHg 86%

    27 February, Wednesday

    Time Temperature Precipitation Wind Pressure Humidity
    00:00 +24°C° 0 mm 2 mps 758 mmHg 87%
    01:00 +24°C° 0 mm 2 mps 758 mmHg 87%
    02:00 +24°C° 0 mm 2 mps 757 mmHg 89%
    03:00 +24°C° 0 mm 2 mps 757 mmHg 90%
    04:00 +24°C° 0 mm 2 mps 757 mmHg 92%
    05:00 +24°C° 0 mm 2 mps 757 mmHg 91%
    06:00 +24°C° 0 mm 2 mps 758 mmHg 90%
    07:00 +25°C° 0 mm 2 mps 758 mmHg 89%
    08:00 +27°C° 0 mm 3 mps 758 mmHg 79%
    09:00 +29°C° 0 mm 3 mps 758 mmHg 69%
    10:00 +33°C° 0 mm 3 mps 758 mmHg 59%
    11:00 +34°C° 0 mm 4 mps 757 mmHg 55%
    12:00 +35°C° 0 mm 4 mps 757 mmHg 51%
    13:00 +35°C° 0 mm 4 mps 756 mmHg 47%
    14:00 +35°C° 0 mm 4 mps 756 mmHg 48%
    15:00 +35°C° 0 mm 4 mps 756 mmHg 49%
    16:00 +35°C° 0 mm 4 mps 755 mmHg 50%
    17:00 +33°C° 0 mm 4 mps 756 mmHg 59%
    18:00 +30°C° 0 mm 3 mps 756 mmHg 67%
    19:00 +27°C° 0 mm 3 mps 757 mmHg 76%
    20:00 +27°C° 0 mm 3 mps 757 mmHg 78%
    21:00 +26°C° 0 mm 2 mps 758 mmHg 81%
    22:00 +25°C° 0 mm 2 mps 758 mmHg 83%
    23:00 +25°C° 0 mm 2 mps 758 mmHg 82%
    Show more